This is the latest recevied weather packets stored in our database for station/object E20ZNR-1. If no packets are shown the sender has not sent any weather packets the latest 10 day(s).
| Time | Temp. | Humidity | Pressure | Rain* | Wind** | Luminosity | Snow |
|---|---|---|---|---|---|---|---|
| 1777730808 | 28.33° C | 91% | 1005 hPa | - | - | 0 W/m² | - |
| 1777729884 | 29.44° C | 79% | 1005 hPa | - | - | 0 W/m² | - |
| 1777728960 | 29.44° C | 78% | 1004 hPa | - | - | 0 W/m² | - |
| 1777728035 | 29.44° C | 77% | 1004 hPa | - | - | 0 W/m² | - |
| 1777727111 | 30° C | 74% | 1004 hPa | - | - | 0 W/m² | - |
| 1777726187 | 30° C | 73% | 1003 hPa | - | - | 0 W/m² | - |
| 1777725262 | 29.44° C | 72% | 1003 hPa | - | - | 0 W/m² | - |
| 1777724338 | 29.44° C | 74% | 1003 hPa | - | - | 0 W/m² | - |
| 1777723413 | 29.44° C | 66% | 1002 hPa | - | - | 0 W/m² | - |
| 1777722489 | 31.11° C | 59% | 1002 hPa | - | - | 0 W/m² | - |
| 1777721565 | 31.11° C | 57% | 1002 hPa | - | - | 0 W/m² | - |
| 1777720640 | 31.67° C | 54% | 1002 hPa | - | - | 0 W/m² | - |
| 1777719716 | 32.78° C | 54% | 1003 hPa | - | - | 0 W/m² | - |
| 1777718791 | 33.89° C | 61% | 1002 hPa | - | - | 0 W/m² | - |
| 1777717868 | 33.89° C | 59% | 1002 hPa | - | - | 0 W/m² | - |
| 1777716942 | 33.33° C | 58% | 1002 hPa | - | - | 0 W/m² | - |
| 1777716016 | 34.44° C | 57% | 1001 hPa | - | - | 0 W/m² | - |
| 1777715091 | 36.11° C | 51% | 1002 hPa | - | - | 0 W/m² | - |
| 1777714167 | 37.22° C | 50% | 1001 hPa | - | - | 0 W/m² | - |
| 1777713241 | 36.11° C | 50% | 1001 hPa | - | - | 0 W/m² | - |
| 1777712315 | 35.56° C | 51% | 1001 hPa | - | - | 0 W/m² | - |
| 1777711390 | 40° C | 42% | 1001 hPa | - | - | 0 W/m² | - |
| 1777710465 | 40.56° C | 42% | 1002 hPa | - | - | 0 W/m² | - |
| 1777709540 | 40.56° C | 44% | 1002 hPa | - | - | 0 W/m² | - |
| 1777708614 | 40° C | 45% | 1002 hPa | - | - | 0 W/m² | - |
* Rain since midnight (hover to see other rain measurements)
** Current wind speed in m/s (hover to see current wind gust speed)